Jamestown, ND

9:44 PM CST on February 25, 2017 (GMT -0600)
Jamestown Municipal

Weather History for KJMS - September, 2012

Change the Weather History Date:

Tuesday, September 4, 2012

  Actual Average Record
Temperature  
Mean Temperature 64 °F 63 °F  
Max Temperature 85 °F 76 °F 98 °F (1948)
Min Temperature 43 °F 50 °F 30 °F (1902)
Degree Days  
Heating Degree Days 1 4  
Month to date heating degree days 4 16  
Since 1 July heating degree days 34 82  
Cooling Degree Days 0 2  
Month to date cooling degree days 20 8  
Year to date cooling degree days 566 423  
Growing Degree Days 13 (Base 50)    
Moisture  
Dew Point 46 °F    
Average Humidity 59    
Maximum Humidity 100    
Minimum Humidity 17    
Precipitation  
Precipitation T in 0.08 in 2.48 in (2016)
Month to date precipitation 0.06 0.30  
Year to date precipitation 10.76 14.49  
Sea Level Pressure  
Sea Level Pressure 29.85 in    
Wind  
Wind Speed 5 mph (NNW)    
Max Wind Speed 16 mph    
Max Gust Speed 22 mph    
Visibility 5 miles    
Events Fog    
T = Trace of Precipitation, MM = Missing Value Source: NWS Daily Summary

Daily Weather History Graph

Daily Weather History Graph

Search for Another Location

Airport or City:

Trip Planner

Search our weather history database for the weather conditions in past years. The results will help you decide how hot, cold, wet, or windy it might be!

Date:

Astronomy

Sep. 04, 2012 Rise Set
Actual Time 6:58 AM CDT 8:07 PM CDT
Civil Twilight 6:27 AM CDT 8:38 PM CDT
Nautical Twilight 5:49 AM CDT 9:15 PM CDT
Astronomical Twilight 5:10 AM CDT 9:55 PM CDT
Moon 9:39 PM CDT (9/4) 11:27 AM CDT (9/4)
Length of Visible Light 14h 10m
Length of Day
13h 08m
Waning Gibbous, 83% of the Moon is Illuminated
Sep 4
Waning Gibbous
Sep 8
Last Quarter
Sep 15
New
Sep 22
First Quarter
Sep 29
Full

Hourly Weather History & Observations

Time (CDT) Temp. Windchill Dew Point Humidity Pressure Visibility Wind Dir Wind Speed Gust Speed Precip Events Conditions
12:56 AM 53.1 °F - 51.1 °F 93% 29.85 in 10.0 mi North 4.6 mph - N/A   Clear
1:56 AM 50.0 °F - 48.9 °F 96% 29.86 in 10.0 mi Calm Calm - N/A   Clear
2:47 AM 51.8 °F - 48.2 °F 88% 29.85 in 5.0 mi Calm Calm - N/A   Partly Cloudy
2:56 AM 50.0 °F - 48.0 °F 93% 29.85 in 10.0 mi Calm Calm - N/A   Clear
3:18 AM 48.2 °F - 46.4 °F 93% 29.85 in 2.0 mi Calm Calm - N/A   Clear
3:28 AM 48.2 °F - 46.4 °F 93% 29.85 in 5.0 mi Calm Calm - N/A   Clear
3:42 AM 48.2 °F - 48.2 °F 100% 29.84 in 1.5 mi Calm Calm - N/A   Clear
3:46 AM 48.2 °F - 46.4 °F 93% 29.84 in 4.0 mi Calm Calm - N/A   Clear
3:52 AM 46.4 °F - 46.4 °F 100% 29.84 in 1.5 mi Calm Calm - N/A   Clear
3:56 AM 46.9 °F - 46.0 °F 97% 29.84 in 0.8 mi Calm Calm - N/A   Clear
4:10 AM 44.6 °F 43.1 °F 42.8 °F 93% 29.85 in 0.2 mi NNW 3.5 mph - N/A Fog Fog
4:20 AM 46.4 °F - 44.6 °F 93% 29.84 in 1.0 mi Calm Calm - N/A   Mist
4:29 AM 44.6 °F 42.2 °F 44.6 °F 100% 29.85 in 0.2 mi NW 4.6 mph - N/A Fog Fog
4:56 AM 45.0 °F 43.5 °F 44.1 °F 97% 29.86 in 0.2 mi North 3.5 mph - N/A Fog Fog
5:08 AM 46.4 °F 45.2 °F 44.6 °F 93% 29.85 in 0.5 mi NNE 3.5 mph - N/A Fog Fog
5:18 AM 44.6 °F 43.1 °F 44.6 °F 100% 29.85 in 0.2 mi North 3.5 mph - N/A Fog Fog
5:44 AM 44.6 °F 43.1 °F 44.6 °F 100% 29.86 in 0.2 mi North 3.5 mph - N/A Fog Fog
5:56 AM 45.0 °F - 44.1 °F 97% 29.87 in 0.2 mi Calm Calm - N/A Fog Fog
6:29 AM 46.4 °F - 44.6 °F 93% 29.88 in 0.5 mi Calm Calm - N/A Fog Fog
6:43 AM 44.6 °F - 44.6 °F 100% 29.87 in 1.0 mi Calm Calm - N/A   Mist
6:47 AM 46.4 °F - 44.6 °F 93% 29.88 in 2.0 mi Calm Calm - N/A   Partly Cloudy
6:56 AM 45.0 °F - 44.1 °F 97% 29.89 in 0.8 mi Calm Calm - N/A   Mist
7:13 AM 44.6 °F - 44.6 °F 100% 29.88 in 0.8 mi Calm Calm - N/A   Clear
7:18 AM 42.8 °F - 42.8 °F 100% 29.88 in 0.2 mi Calm Calm - N/A Fog Fog
7:26 AM 42.8 °F - 42.8 °F 100% 29.88 in 0.2 mi Calm Calm - N/A Fog Fog
7:47 AM 46.4 °F - 46.4 °F 100% 29.88 in 1.5 mi Calm Calm - N/A   Scattered Clouds
7:49 AM 48.2 °F - 46.4 °F 93% 29.88 in 4.0 mi Calm Calm - N/A   Scattered Clouds
7:56 AM 48.9 °F - 48.0 °F 97% 29.88 in 8.0 mi Calm Calm - N/A   Scattered Clouds
8:56 AM 59.0 °F - 55.0 °F 87% 29.88 in 10.0 mi SSW 3.5 mph - N/A   Clear
9:56 AM 64.0 °F - 55.0 °F 73% 29.86 in 10.0 mi SSW 5.8 mph - N/A   Clear
10:56 AM 69.1 °F - 55.0 °F 61% 29.86 in 10.0 mi SW 6.9 mph - N/A   Clear
11:56 AM 72.0 °F - 55.0 °F 55% 29.85 in 10.0 mi SW 4.6 mph - N/A   Clear
12:56 PM 78.1 °F - 52.0 °F 40% 29.83 in 10.0 mi NW 8.1 mph - N/A   Clear
1:56 PM 81.0 °F - 48.9 °F 33% 29.82 in 10.0 mi Variable 3.5 mph - N/A   Clear
2:56 PM 84.9 °F - 36.0 °F 17% 29.81 in 10.0 mi NNW 9.2 mph - N/A   Clear
3:56 PM 84.0 °F - 37.0 °F 19% 29.81 in 10.0 mi NW 11.5 mph - N/A   Clear
4:56 PM 81.0 °F - 37.9 °F 21% 29.81 in 10.0 mi North 10.4 mph - N/A   Clear
5:56 PM 78.1 °F - 44.1 °F 30% 29.82 in 10.0 mi NNW 3.5 mph - N/A   Clear
6:56 PM 77.0 °F - 46.9 °F 34% 29.82 in 10.0 mi North 8.1 mph - N/A   Clear
7:56 PM 66.9 °F - 51.1 °F 57% 29.81 in 10.0 mi NNE 6.9 mph - N/A   Clear
8:56 PM 66.9 °F - 50.0 °F 54% 29.82 in 10.0 mi NNW 6.9 mph - N/A   Partly Cloudy
9:56 PM 66.0 °F - 48.9 °F 54% 29.83 in 8.0 mi North 6.9 mph - N/A   Scattered Clouds
10:56 PM 68.0 °F - 46.0 °F 45% 29.83 in 10.0 mi NW 11.5 mph - 0.00 in   Scattered Clouds
11:56 PM 64.0 °F - 46.0 °F 52% 29.83 in 10.0 mi North 6.9 mph - N/A   Mostly Cloudy